Time,TemperatureF,DewpointF,PressureIn,WindDirection,WindDirectionDegrees,WindSpeedMPH,WindSpeedGustMPH,Humidity,HourlyPrecipIn,Conditions,Clouds,dailyrainin,SoftwareType,DateUTC
2013-02-04 00:04:00,49.0,-99.9,-100.00,West,265,6.0,11.0,-999,-99.99,,,-99.99,,2013-02-04 05:04:00,
2013-02-04 00:12:00,49.0,-99.9,-100.00,West,260,10.0,12.0,-999,-99.99,,,-99.99,,2013-02-04 05:12:00,
2013-02-04 00:22:00,49.0,-99.9,-100.00,West,270,10.0,13.0,-999,-99.99,,,-99.99,,2013-02-04 05:22:00,
2013-02-04 00:33:00,48.0,-99.9,-100.00,West,270,10.0,14.0,-999,-99.99,,,-99.99,,2013-02-04 05:33:00,
2013-02-04 00:42:00,48.0,-99.9,-100.00,West,270,9.0,13.0,-999,-99.99,,,-99.99,,2013-02-04 05:42:00,
2013-02-04 00:52:00,47.0,-99.9,-100.00,West,265,10.0,13.0,-999,-99.99,,,-99.99,,2013-02-04 05:52:00,
2013-02-04 01:02:00,47.0,-99.9,-100.00,West,275,9.0,13.0,-999,-99.99,,,-99.99,,2013-02-04 06:02:00,
2013-02-04 01:11:00,47.0,-99.9,-100.00,West,265,9.0,13.0,-999,-99.99,,,-99.99,,2013-02-04 06:11:00,
2013-02-04 01:22:00,47.0,-99.9,-100.00,West,275,9.0,14.0,-999,-99.99,,,-99.99,,2013-02-04 06:22:00,
2013-02-04 01:32:00,46.0,-99.9,-100.00,West,270,10.0,13.0,-999,-99.99,,,-99.99,,2013-02-04 06:32:00,
2013-02-04 01:42:00,45.0,-99.9,-100.00,West,270,9.0,13.0,-999,-99.99,,,-99.99,,2013-02-04 06:42:00,
2013-02-04 01:52:00,45.0,-99.9,-100.00,West,265,11.0,14.0,-999,-99.99,,,-99.99,,2013-02-04 06:52:00,
2013-02-04 02:02:00,45.0,-99.9,-100.00,West,265,11.0,14.0,-999,-99.99,,,-99.99,,2013-02-04 07:02:00,
2013-02-04 02:11:00,45.0,-99.9,-100.00,West,270,10.0,14.0,-999,-99.99,,,-99.99,,2013-02-04 07:11:00,
2013-02-04 02:22:00,45.0,-99.9,-100.00,West,265,10.0,14.0,-999,-99.99,,,-99.99,,2013-02-04 07:22:00,
2013-02-04 02:32:00,45.0,-99.9,-100.00,West,270,10.0,13.0,-999,-99.99,,,-99.99,,2013-02-04 07:32:00,
2013-02-04 02:42:00,44.0,-99.9,-100.00,West,265,9.0,13.0,-999,-99.99,,,-99.99,,2013-02-04 07:42:00,
2013-02-04 02:52:00,44.0,-99.9,-100.00,West,265,9.0,13.0,-999,-99.99,,,-99.99,,2013-02-04 07:52:00,
2013-02-04 03:01:00,44.0,-99.9,-100.00,West,260,11.0,14.0,-999,-99.99,,,-99.99,,2013-02-04 08:01:00,
2013-02-04 03:11:00,44.0,-99.9,-100.00,West,260,12.0,14.0,-999,-99.99,,,-99.99,,2013-02-04 08:11:00,
2013-02-04 03:21:00,43.0,-99.9,-100.00,West,260,11.0,14.0,-999,-99.99,,,-99.99,,2013-02-04 08:21:00,
2013-02-04 03:32:00,43.0,-99.9,-100.00,West,260,11.0,14.0,-999,-99.99,,,-99.99,,2013-02-04 08:32:00,
2013-02-04 03:42:00,43.0,-99.9,-100.00,West,265,11.0,14.0,-999,-99.99,,,-99.99,,2013-02-04 08:42:00,
2013-02-04 03:52:00,42.0,-99.9,-100.00,West,260,11.0,14.0,-999,-99.99,,,-99.99,,2013-02-04 08:52:00,
2013-02-04 04:02:00,42.0,-99.9,-100.00,West,275,8.0,13.0,-999,-99.99,,,-99.99,,2013-02-04 09:02:00,
2013-02-04 04:11:00,42.0,-99.9,-100.00,West,270,9.0,12.0,-999,-99.99,,,-99.99,,2013-02-04 09:11:00,
2013-02-04 04:22:00,42.0,-99.9,-100.00,West,280,9.0,10.0,-999,-99.99,,,-99.99,,2013-02-04 09:22:00,
2013-02-04 04:32:00,41.0,-99.9,-100.00,West,270,9.0,11.0,-999,-99.99,,,-99.99,,2013-02-04 09:32:00,
2013-02-04 04:42:00,41.0,-99.9,-100.00,West,275,9.0,11.0,-999,-99.99,,,-99.99,,2013-02-04 09:42:00,
2013-02-04 04:52:00,41.0,-99.9,-100.00,NW,305,11.0,14.0,-999,-99.99,,,-99.99,,2013-02-04 09:52:00,
2013-02-04 05:02:00,41.0,-99.9,-100.00,NW,315,10.0,14.0,-999,-99.99,,,-99.99,,2013-02-04 10:02:00,
2013-02-04 05:12:00,40.0,-99.9,-100.00,NW,315,10.0,14.0,-999,-99.99,,,-99.99,,2013-02-04 10:12:00,
2013-02-04 05:22:00,40.0,-99.9,-100.00,NW,310,11.0,11.0,-999,-99.99,,,-99.99,,2013-02-04 10:22:00,
2013-02-04 05:32:00,41.0,-99.9,-100.00,NW,320,10.0,14.0,-999,-99.99,,,-99.99,,2013-02-04 10:32:00,
2013-02-04 05:42:00,40.0,-99.9,-100.00,NW,325,9.0,13.0,-999,-99.99,,,-99.99,,2013-02-04 10:42:00,
2013-02-04 05:52:00,40.0,-99.9,-100.00,NW,320,8.0,11.0,-999,-99.99,,,-99.99,,2013-02-04 10:52:00,
2013-02-04 06:02:00,40.0,-99.9,-100.00,NW,305,8.0,11.0,-999,-99.99,,,-99.99,,2013-02-04 11:02:00,
2013-02-04 06:12:00,40.0,-99.9,-100.00,NW,315,7.0,11.0,-999,-99.99,,,-99.99,,2013-02-04 11:12:00,
2013-02-04 06:22:00,40.0,-99.9,-100.00,NW,315,7.0,9.0,-999,-99.99,,,-99.99,,2013-02-04 11:22:00,
2013-02-04 06:33:00,40.0,-99.9,-100.00,NW,310,7.0,9.0,-999,-99.99,,,-99.99,,2013-02-04 11:33:00,
2013-02-04 06:42:00,40.0,-99.9,-100.00,NW,320,7.0,9.0,-999,-99.99,,,-99.99,,2013-02-04 11:42:00,
2013-02-04 06:53:00,40.0,-99.9,-100.00,NNW,330,5.0,7.0,-999,-99.99,,,-99.99,,2013-02-04 11:53:00,
2013-02-04 07:03:00,40.0,-99.9,-100.00,NNW,345,4.0,6.0,-999,-99.99,,,-99.99,,2013-02-04 12:03:00,
2013-02-04 07:12:00,40.0,-99.9,-100.00,North,350,5.0,6.0,-999,-99.99,,,-99.99,,2013-02-04 12:12:00,
2013-02-04 07:22:00,40.0,-99.9,-100.00,North,5,4.0,7.0,-999,-99.99,,,-99.99,,2013-02-04 12:22:00,
2013-02-04 07:33:00,40.0,-99.9,-100.00,North,350,4.0,6.0,-999,-99.99,,,-99.99,,2013-02-04 12:33:00,
2013-02-04 07:42:00,40.0,-99.9,-100.00,North,0,5.0,7.0,-999,-99.99,,,-99.99,,2013-02-04 12:42:00,
2013-02-04 07:53:00,40.0,-99.9,-100.00,North,0,5.0,7.0,-999,-99.99,,,-99.99,,2013-02-04 12:53:00,
2013-02-04 08:03:00,39.0,-99.9,-100.00,NE,40,3.0,9.0,-999,-99.99,,,-99.99,,2013-02-04 13:03:00,
2013-02-04 08:13:00,39.0,-99.9,-100.00,NE,35,6.0,11.0,-999,-99.99,,,-99.99,,2013-02-04 13:13:00,
2013-02-04 08:22:00,40.0,-99.9,-100.00,NNE,25,5.0,9.0,-999,-99.99,,,-99.99,,2013-02-04 13:22:00,
2013-02-04 08:33:00,40.0,-99.9,-100.00,NNE,20,6.0,9.0,-999,-99.99,,,-99.99,,2013-02-04 13:33:00,
2013-02-04 08:42:00,41.0,-99.9,-100.00,NE,55,4.0,8.0,-999,-99.99,,,-99.99,,2013-02-04 13:42:00,
2013-02-04 08:52:00,41.0,-99.9,-100.00,NNE,20,4.0,7.0,-999,-99.99,,,-99.99,,2013-02-04 13:52:00,
2013-02-04 09:03:00,41.0,-99.9,-100.00,ENE,65,5.0,11.0,-999,-99.99,,,-99.99,,2013-02-04 14:03:00,
2013-02-04 09:12:00,41.0,-99.9,-100.00,NE,55,4.0,11.0,-999,-99.99,,,-99.99,,2013-02-04 14:12:00,
2013-02-04 09:23:00,41.0,-99.9,-100.00,NE,50,5.0,6.0,-999,-99.99,,,-99.99,,2013-02-04 14:23:00,
2013-02-04 09:33:00,41.0,-99.9,-100.00,NE,35,5.0,7.0,-999,-99.99,,,-99.99,,2013-02-04 14:33:00,
2013-02-04 09:42:00,41.0,-99.9,-100.00,NE,40,7.0,8.0,-999,-99.99,,,-99.99,,2013-02-04 14:42:00,
2013-02-04 09:53:00,41.0,-99.9,-100.00,NE,40,7.0,8.0,-999,-99.99,,,-99.99,,2013-02-04 14:53:00,
2013-02-04 10:04:00,42.0,-99.9,-100.00,NE,45,7.0,9.0,-999,-99.99,,,-99.99,,2013-02-04 15:04:00,
2013-02-04 10:13:00,43.0,-99.9,-100.00,NE,35,7.0,9.0,-999,-99.99,,,-99.99,,2013-02-04 15:13:00,
2013-02-04 10:24:00,44.0,-99.9,-100.00,NE,35,5.0,8.0,-999,-99.99,,,-99.99,,2013-02-04 15:24:00,
2013-02-04 10:33:00,44.0,-99.9,-100.00,NNE,30,6.0,8.0,-999,-99.99,,,-99.99,,2013-02-04 15:33:00,
2013-02-04 10:40:00,48.0,-99.9,-100.00,East,90,7.0,12.0,-999,-99.99,,,-99.99,,2013-02-04 15:40:00,
2013-02-04 10:43:00,45.0,-99.9,-100.00,NNE,30,6.0,8.0,-999,-99.99,,,-99.99,,2013-02-04 15:43:00,
2013-02-04 10:53:00,47.0,-99.9,-100.00,NE,40,4.0,7.0,-999,-99.99,,,-99.99,,2013-02-04 15:53:00,
2013-02-04 11:03:00,48.0,-99.9,-100.00,ENE,75,7.0,11.0,-999,-99.99,,,-99.99,,2013-02-04 16:03:00,
2013-02-04 11:12:00,48.0,-99.9,-100.00,East,90,7.0,12.0,-999,-99.99,,,-99.99,,2013-02-04 16:12:00,
2013-02-04 11:23:00,48.0,-99.9,-100.00,East,90,7.0,12.0,-999,-99.99,,,-99.99,,2013-02-04 16:23:00,
2013-02-04 11:33:00,48.0,-99.9,-100.00,East,90,7.0,12.0,-999,-99.99,,,-99.99,,2013-02-04 16:33:00,
2013-02-04 12:42:00,51.0,-99.9,-100.00,East,95,7.0,14.0,-999,-99.99,,,-99.99,,2013-02-04 17:42:00,
2013-02-04 12:52:00,51.0,-99.9,-100.00,East,80,7.0,11.0,-999,-99.99,,,-99.99,,2013-02-04 17:52:00,
2013-02-04 13:04:00,51.0,-99.9,-100.00,East,90,5.0,13.0,-999,-99.99,,,-99.99,,2013-02-04 18:04:00,
2013-02-04 13:12:00,51.0,-99.9,-100.00,ESE,120,6.0,12.0,-999,-99.99,,,-99.99,,2013-02-04 18:12:00,
2013-02-04 13:22:00,51.0,-99.9,-100.00,East,85,7.0,11.0,-999,-99.99,,,-99.99,,2013-02-04 18:22:00,
2013-02-04 13:33:00,51.0,-99.9,-100.00,ENE,60,5.0,11.0,-999,-99.99,,,-99.99,,2013-02-04 18:33:00,
2013-02-04 13:42:00,52.0,-99.9,-100.00,ENE,75,4.0,10.0,-999,-99.99,,,-99.99,,2013-02-04 18:42:00,
2013-02-04 13:52:00,52.0,-99.9,-100.00,East,95,3.0,11.0,-999,-99.99,,,-99.99,,2013-02-04 18:52:00,
2013-02-04 14:02:00,52.0,-99.9,-100.00,ESE,110,2.0,9.0,-999,-99.99,,,-99.99,,2013-02-04 19:02:00,
2013-02-04 14:12:00,52.0,-99.9,-100.00,SE,135,4.0,11.0,-999,-99.99,,,-99.99,,2013-02-04 19:12:00,
2013-02-04 14:23:00,52.0,-99.9,-100.00,East,90,5.0,11.0,-999,-99.99,,,-99.99,,2013-02-04 19:23:00,
2013-02-04 14:32:00,52.0,-99.9,-100.00,East,95,4.0,9.0,-999,-99.99,,,-99.99,,2013-02-04 19:32:00,
2013-02-04 14:42:00,51.0,-99.9,-100.00,ENE,70,4.0,10.0,-999,-99.99,,,-99.99,,2013-02-04 19:42:00,
2013-02-04 14:52:00,51.0,-99.9,-100.00,NE,50,4.0,11.0,-999,-99.99,,,-99.99,,2013-02-04 19:52:00,
2013-02-04 15:03:00,53.0,-99.9,-100.00,East,90,3.0,10.0,-999,-99.99,,,-99.99,,2013-02-04 20:03:00,
2013-02-04 15:12:00,53.0,-99.9,-100.00,East,90,3.0,11.0,-999,-99.99,,,-99.99,,2013-02-04 20:12:00,
2013-02-04 15:22:00,53.0,-99.9,-100.00,SE,125,4.0,10.0,-999,-99.99,,,-99.99,,2013-02-04 20:22:00,
2013-02-04 15:32:00,53.0,-99.9,-100.00,SE,125,4.0,10.0,-999,-99.99,,,-99.99,,2013-02-04 20:32:00,
2013-02-04 15:42:00,53.0,-99.9,-100.00,East,80,4.0,9.0,-999,-99.99,,,-99.99,,2013-02-04 20:42:00,
2013-02-04 15:52:00,53.0,-99.9,-100.00,ENE,75,4.0,8.0,-999,-99.99,,,-99.99,,2013-02-04 20:52:00,
2013-02-04 16:03:00,54.0,-99.9,-100.00,ENE,70,6.0,9.0,-999,-99.99,,,-99.99,,2013-02-04 21:03:00,
2013-02-04 16:12:00,54.0,-99.9,-100.00,ESE,120,3.0,9.0,-999,-99.99,,,-99.99,,2013-02-04 21:12:00,
2013-02-04 16:23:00,54.0,-99.9,-100.00,ESE,120,3.0,9.0,-999,-99.99,,,-99.99,,2013-02-04 21:23:00,
2013-02-04 16:32:00,53.0,-99.9,-100.00,ESE,115,6.0,12.0,-999,-99.99,,,-99.99,,2013-02-04 21:32:00,
2013-02-04 16:43:00,53.0,-99.9,-100.00,East,90,5.0,11.0,-999,-99.99,,,-99.99,,2013-02-04 21:43:00,
2013-02-04 16:52:00,53.0,-99.9,-100.00,SSE,150,4.0,13.0,-999,-99.99,,,-99.99,,2013-02-04 21:52:00,
2013-02-04 17:03:00,53.0,-99.9,-100.00,SE,125,6.0,13.0,-999,-99.99,,,-99.99,,2013-02-04 22:03:00,
2013-02-04 17:12:00,52.0,-99.9,-100.00,SE,130,8.0,13.0,-999,-99.99,,,-99.99,,2013-02-04 22:12:00,
2013-02-04 17:22:00,52.0,-99.9,-100.00,SE,125,5.0,11.0,-999,-99.99,,,-99.99,,2013-02-04 22:22:00,
2013-02-04 17:33:00,52.0,-99.9,-100.00,SSE,150,6.0,11.0,-999,-99.99,,,-99.99,,2013-02-04 22:33:00,
2013-02-04 17:42:00,52.0,-99.9,-100.00,SE,130,5.0,9.0,-999,-99.99,,,-99.99,,2013-02-04 22:42:00,
2013-02-04 17:52:00,52.0,-99.9,-100.00,SE,130,5.0,9.0,-999,-99.99,,,-99.99,,2013-02-04 22:52:00,
2013-02-04 18:02:00,52.0,-99.9,-100.00,SSE,155,5.0,9.0,-999,-99.99,,,-99.99,,2013-02-04 23:02:00,
2013-02-04 18:11:00,51.0,-99.9,-100.00,SSE,150,6.0,11.0,-999,-99.99,,,-99.99,,2013-02-04 23:11:00,
2013-02-04 18:22:00,51.0,-99.9,-100.00,SSE,150,8.0,12.0,-999,-99.99,,,-99.99,,2013-02-04 23:22:00,
2013-02-04 18:32:00,51.0,-99.9,-100.00,SSE,150,9.0,12.0,-999,-99.99,,,-99.99,,2013-02-04 23:32:00,
2013-02-04 18:42:00,51.0,-99.9,-100.00,SE,145,6.0,12.0,-999,-99.99,,,-99.99,,2013-02-04 23:42:00,
2013-02-04 18:53:00,51.0,-99.9,-100.00,SSE,150,4.0,11.0,-999,-99.99,,,-99.99,,2013-02-04 23:53:00,
2013-02-04 19:02:00,50.0,-99.9,-100.00,SSE,155,7.0,11.0,-999,-99.99,,,-99.99,,2013-02-05 00:02:00,
2013-02-04 19:12:00,50.0,-99.9,-100.00,SE,135,6.0,11.0,-999,-99.99,,,-99.99,,2013-02-05 00:12:00,
2013-02-04 19:22:00,50.0,-99.9,-100.00,SE,125,6.0,9.0,-999,-99.99,,,-99.99,,2013-02-05 00:22:00,
2013-02-04 19:32:00,50.0,-99.9,-100.00,SE,135,7.0,11.0,-999,-99.99,,,-99.99,,2013-02-05 00:32:00,
2013-02-04 19:42:00,49.0,-99.9,-100.00,SE,140,6.0,9.0,-999,-99.99,,,-99.99,,2013-02-05 00:42:00,
2013-02-04 19:52:00,49.0,-99.9,-100.00,SSE,150,6.0,9.0,-999,-99.99,,,-99.99,,2013-02-05 00:52:00,
2013-02-04 20:02:00,49.0,-99.9,-100.00,SSE,165,4.0,9.0,-999,-99.99,,,-99.99,,2013-02-05 01:02:00,
2013-02-04 20:12:00,49.0,-99.9,-100.00,South,190,4.0,7.0,-999,-99.99,,,-99.99,,2013-02-05 01:12:00,
2013-02-04 20:22:00,49.0,-99.9,-100.00,SSW,195,6.0,9.0,-999,-99.99,,,-99.99,,2013-02-05 01:22:00,
2013-02-04 20:33:00,49.0,-99.9,-100.00,South,190,4.0,8.0,-999,-99.99,,,-99.99,,2013-02-05 01:33:00,
2013-02-04 20:42:00,49.0,-99.9,-100.00,South,175,4.0,8.0,-999,-99.99,,,-99.99,,2013-02-05 01:42:00,
2013-02-04 20:52:00,49.0,-99.9,-100.00,South,170,4.0,6.0,-999,-99.99,,,-99.99,,2013-02-05 01:52:00,
2013-02-04 21:02:00,48.0,-99.9,-100.00,SSE,150,4.0,7.0,-999,-99.99,,,-99.99,,2013-02-05 02:02:00,
2013-02-04 21:12:00,48.0,-99.9,-100.00,South,180,4.0,6.0,-999,-99.99,,,-99.99,,2013-02-05 02:12:00,
2013-02-04 21:22:00,48.0,-99.9,-100.00,SSW,195,5.0,8.0,-999,-99.99,,,-99.99,,2013-02-05 02:22:00,
2013-02-04 21:32:00,48.0,-99.9,-100.00,South,175,5.0,8.0,-999,-99.99,,,-99.99,,2013-02-05 02:32:00,
2013-02-04 21:42:00,49.0,-99.9,-100.00,SSE,155,6.0,8.0,-999,-99.99,,,-99.99,,2013-02-05 02:42:00,
2013-02-04 21:52:00,48.0,-99.9,-100.00,SE,130,5.0,8.0,-999,-99.99,,,-99.99,,2013-02-05 02:52:00,
2013-02-04 22:02:00,48.0,-99.9,-100.00,SSE,160,6.0,7.0,-999,-99.99,,,-99.99,,2013-02-05 03:02:00,
2013-02-04 22:12:00,48.0,-99.9,-100.00,South,185,5.0,8.0,-999,-99.99,,,-99.99,,2013-02-05 03:12:00,
2013-02-04 22:22:00,48.0,-99.9,-100.00,South,185,5.0,7.0,-999,-99.99,,,-99.99,,2013-02-05 03:22:00,
2013-02-04 22:32:00,48.0,-99.9,-100.00,South,190,4.0,7.0,-999,-99.99,,,-99.99,,2013-02-05 03:32:00,
2013-02-04 22:42:00,47.0,-99.9,-100.00,SW,230,5.0,7.0,-999,-99.99,,,-99.99,,2013-02-05 03:42:00,
2013-02-04 22:52:00,48.0,-99.9,-100.00,SSW,195,4.0,6.0,-999,-99.99,,,-99.99,,2013-02-05 03:52:00,
2013-02-04 23:02:00,47.0,-99.9,-100.00,SSW,205,4.0,8.0,-999,-99.99,,,-99.99,,2013-02-05 04:02:00,
2013-02-04 23:11:00,47.0,-99.9,-100.00,WSW,250,4.0,6.0,-999,-99.99,,,-99.99,,2013-02-05 04:11:00,
2013-02-04 23:22:00,48.0,-99.9,-100.00,WSW,250,5.0,6.0,-999,-99.99,,,-99.99,,2013-02-05 04:22:00,
2013-02-04 23:32:00,47.0,-99.9,-100.00,WSW,250,6.0,7.0,-999,-99.99,,,-99.99,,2013-02-05 04:32:00,
2013-02-04 23:42:00,47.0,-99.9,-100.00,WSW,245,7.0,9.0,-999,-99.99,,,-99.99,,2013-02-05 04:42:00,
2013-02-04 23:52:00,47.0,-99.9,-100.00,SW,230,9.0,10.0,-999,-99.99,,,-99.99,,2013-02-05 04:52:00,